Hourly Data Report for January 11, 2017

All times are specified in Local Standard Time (LST). Add 1 hour to adjust for Daylight Saving Time where and when it is observed.

OTTAWA CDA RCS
ONTARIO

45°23'00.000" N
75°43'00.000" W
79.20 m
6105978
71063
XOA

Download Data

Hourly Data (January 2017)
Hourly Data Report for January 11, 2017
Temp Definition
°C
Dew Point Temp Definition
°C
Rel Hum Definition
%
Wind Dir Definition
10's deg

Wind Spd Definition
km/h
Visibility Definition
km
Stn Press Definition
kPa
Hmdx Definition


Wind Chill Definition


Weather Definition


TIME
00:00 1.0 -0.3 91 15 18   99.45     LegendNANA
01:00 1.3 0.1 92 15 16   99.28     LegendNANA
02:00 1.7 0.5 92 16 25   99.10     LegendNANA
03:00 2.3 0.9 90 17 38   98.94     LegendNANA
04:00 3.5 1.3 85 19 48   98.94     LegendNANA
05:00 3.7 0.8 81 23 32   99.23     LegendNANA
06:00 3.6 -0.8 73 22 33   99.51     LegendNANA
07:00 3.7 -1.7 67 24 38   99.76     LegendNANA
08:00 3.8 -2.5 63 24 32   100.01     LegendNANA
09:00 4.0 -3.4 59 25 34   100.25     LegendNANA
10:00 3.9 -3.2 60 24 32   100.51     LegendNANA
11:00 3.8 -3.4 59 25 26   100.61     LegendNANA
12:00 4.0 -3.0 60 23 18   100.66     LegendNANA
13:00 3.8 -2.8 62 21 23   100.68     LegendNANA
14:00 3.9 -3.0 61 21 27   100.60     LegendNANA
15:00 3.2 -1.7 70 21 24   100.72     LegendNANA
16:00 3.1 -1.6 71 20 18   100.82     LegendNANA
17:00 3.2 -2.2 68 18 16   100.74     LegendNANA
18:00 3.2 -2.5 66 17 11   100.60     LegendNANA
19:00 2.8 -2.3 69 16 12   100.50     LegendNANA
20:00 4.0 -1.9 65 12 11   100.38     LegendNANA
21:00 4.2 -1.6 66 15 10   100.29     LegendNANA
22:00 5.0 -1.5 63 18 29   100.16     LegendNANA
23:00 5.5 -1.8 60 18 32   100.09     LegendNANA

Notes on Data Quality.

Legend

  • E = Estimated
  • M = Missing
  • NA = Not Available
  • ‡ = Partner data that is not subject to review by the National Climate Archives
Date modified: